[[{"header":{"parameterUnit":"m.s-1","parameterCategory":1,"la1":30.2991,"la2":30.254,"lo1":-89.0895,"lo2":-89.0444,"dy":0.0017,"dx":0.0017,"nx":28,"ny":28,"refTime":"2023-10-21T09:00:00:Z","depth":0,"parameterNumber":2,"parameterNumberName":"U-component_of_WINDS"},"data":[0,0,0,0,0,0,0,0,0,0,0,0,0,0,0,0,0,0,0,0,0,0,0,0,0,0,0,0,0,0,0,0,0,0,0,0,0,0,0,0,0,0,0,0,0,0,0,0,0,0,0,0,0,0,0,0,0,0,0.0025,0.0026,0,0.0095,0.0096,0.0096,0.0107,0.0106,0.0106,0.0105,0.0178,0.018,0.0183,0,0,0,0,0,0,0,0,0,0,0,0,0,-0.0097,-0.0095,0.0025,0.0026,0.0027,0.0095,0.0096,0.0097,0.0107,0.0106,0.0105,0.0105,0.0177,0.018,0.0183,0,0,0,0,0,0,0,0,0,0,0,0,0,-0.0038,-0.0094,0.0025,0.004,0.0042,0.0095,0.0096,0.0097,0.0107,0.0106,0.0105,0.0104,0.0176,0.018,0.0183,0.0226,0,0,0.0195,0.0197,0,0,0,0,0,0,0,0,-0.0041,-0.0033,0.0037,0.0039,0.0042,0.0091,0.0079,0.014,0.0107,0.0083,0.0105,0.0104,0.015,0.0156,0.0171,0.0229,0.0232,0.0195,0.0198,0.0199,0.02,0,0,0,0,0,0,0,-0.0045,-0.0036,0.0053,0.0038,0.0041,0.0044,0.0051,0.0091,0.0121,0.0085,0.0086,0.0094,0.0151,0.0167,0.0173,0.0233,0.0195,0.0198,0.0201,0.0202,0.033,0.0331,0,0,0,0,0,0,-0.0052,-0.004,0.0051,0.0055,-0.0003,0.0047,0.0055,0.0076,0.012,0.0126,0.0094,0.0094,0.0161,0.0168,0.0175,0.0228,0.0199,0.0203,0.0205,0.0329,0.033,0.0331,0,0,0,0,0,0,-0.0055,-0.0044,0.0048,0.0008,0.002,0.005,0.0074,0.0078,0.0094,0.0128,0.0133,0.0105,0.0161,0.017,0.0213,0.023,0.0204,0.0208,0.0327,0.0329,0.0331,0.0333,0,0,0,0,0,0,-0.0058,-0.0045,-0.0029,0.0008,0.0022,0.0084,0.0075,0.008,0.0101,0.0101,0.0139,0.0145,0.0161,0.0207,0.0217,0.0235,0.0211,0.0326,0.0328,0.033,0.0332,0.0335,0.0337,0,0,0,0,0,-0.0063,-0.0031,-0.0028,-0.0018,0.0043,0.0085,0.0093,0.011,0.0102,0.0119,0.014,0.0144,0.0227,0.0212,0.0222,0.0242,0.0325,0.0328,0.033,0.033,0.0334,0.0337,0,0,0,0,0,0,-0.0066,-0.0026,-0.0022,0.0023,0.005,0.0087,0.0108,0.0113,0.0144,0.0143,0.0163,0.0172,0.0214,0.0232,0.0215,0.0286,0.0275,0.028,0.0272,0.0276,0.0278,0.0273,0.0214,0,0,0,0,0,-0.0062,-0.0032,0.0003,0.0039,0.0053,0.0078,0.0097,0.0108,0.0137,0.0149,0.0174,0.0203,0.0235,0.0257,0.0288,0.0334,0.0343,0.0353,0.0356,0.0358,0.0362,0.0388,0.0393,0.034,0.034,0.0339,0,0,-0.0053,-0.0027,-0.0008,0.0039,0.0062,0.0093,0.0088,0.0121,0.0145,0.0155,0.0197,0.0215,0.0249,0.0294,0.0315,0.031,0.0379,0.0361,0.0363,0.0366,0.0391,0.0396,0.04,0.0341,0.0341,0.0341,0,0,-0.0019,0.0003,0.0036,0.0059,0.0093,0.011,0.0117,0.0153,0.0166,0.0208,0.0216,0.0245,0.0301,0.0324,0.0344,0.0386,0.039,0.0396,0.041,0.0435,0.0439,0.0443,0.0458,0.0464,0.0399,0.0399,0.0399,0,-0.0012,0.0036,0.0053,0.0086,0.0106,0.0116,0.0149,0.0171,0.0214,0.0228,0.0222,0.0293,0.0316,0.0366,0.0376,0.0392,0.0402,0.0391,0.0437,0.0441,0.0445,0.046,0.0466,0.04,0.04,0.04,0.04,0,0.0044,0.0076,0.0099,0.0139,0.0163,0.0196,0.0218,0.0239,0.0248,0.0265,0.0308,0.0337,0.0374,0.0387,0.0396,0.0439,0.0435,0.0433,0.0423,0.045,0.0465,0.047,0.04,0.04,0.04,0.04,0,0,0.0077,0.0126,0.0134,0.0153,0.0191,0.0217,0.0251,0.0287,0.0305,0.0334,0.0363,0.041,0.0409,0.0431,0.0442,0.0464,0.0495,0.046,0.0461,0.0465,0.0545,0.0546,0.0552,0.0499,0.05,0.0501,0.0542,0,0.0115,0.0175,0.0191,0.0242,0.0272,0.0281,0.0311,0.0338,0.0355,0.0383,0.0402,0.0435,0.0431,0.0444,0.0466,0.0487,0.0512,0.0484,0.0526,0.0528,0.0518,0.0559,0.0561,0.0598,0.0547,0.0548,0.0549,0,0.0167,0.0197,0.0251,0.0285,0.0299,0.0325,0.0359,0.0386,0.0417,0.0428,0.0452,0.0462,0.0497,0.0485,0.0535,0.0516,0.0534,0.0547,0.0549,0.0554,0.054,0.0566,0.0611,0.0616,0.0558,0.0557,0.0557,0,0.0186,0.024,0.0279,0.0295,0.0336,0.0354,0.0372,0.0401,0.0422,0.0453,0.0466,0.0501,0.0519,0.0546,0.0565,0.0554,0.0613,0.0602,0.0623,0.0623,0.0636,0.0635,0.0684,0.0647,0.0647,0.0647,0.0646,0,0.0227,0.026,0.0288,0.0312,0.0349,0.0367,0.0404,0.0422,0.0448,0.0476,0.0486,0.0513,0.0535,0.0565,0.058,0.0619,0.0627,0.0637,0.0641,0.0637,0.0635,0.0649,0.0647,0.0648,0.0648,0.0648,0.0647,0,0.0255,0.0275,0.0318,0.0353,0.0363,0.0389,0.0419,0.0443,0.046,0.0495,0.0505,0.0532,0.0567,0.0588,0.0633,0.0643,0.0686,0.0688,0.0675,0.0677,0.0697,0.0695,0.0757,0.0767,0.0722,0.0723,0.0723,0,0.028,0.0305,0.0342,0.0362,0.038,0.0411,0.0432,0.0451,0.0472,0.0509,0.0529,0.0564,0.0594,0.065,0.0674,0.0708,0.0712,0.0731,0.0717,0.0712,0.0712,0.071,0.0713,0.0734,0.0734,0.0734,0.0735,0,0.0322,0.033,0.036,0.0394,0.0418,0.0446,0.0473,0.0488,0.0512,0.0536,0.0571,0.0594,0.064,0.0675,0.0711,0.073,0.0737,0.0739,0.0745,0.0741,0.0733,0.0738,0.0682,0.0737,0.0737,0.0737,0.0737,0.0737,0.0349,0.0372,0.0401,0.0434,0.0457,0.0482,0.0506,0.0526,0.0556,0.0594,0.0603,0.0641,0.0671,0.072,0.074,0.077,0.0767,0.0777,0.0779,0.0782,0.0782,0.0728,0.0777,0.0777,0.0777,0.0777,0.0777,0,0.0391,0.0411,0.0441,0.0478,0.0504,0.0507,0.0538,0.0559,0.0592,0.062,0.0648,0.0689,0.0724,0.075,0.0786,0.0805,0.0808,0.0813,0.0812,0.0817,0.0783,0.0773,0.081,0.081,0.081,0.081,0.081,0.081,0.0416,0.0455,0.0467,0.0517,0.0537,0.0574,0.0591,0.0614,0.0636,0.0681,0.071,0.0727,0.0754,0.0791,0.0823,0.083,0.0843,0.0847,0.0855,0.0822,0.0819,0.0816,0.0807,0.085,0.085,0.0886,0.0886,0.0887]},{"header":{"parameterUnit":"m.s-1","parameterCategory":1,"la1":30.2991,"la2":30.254,"lo1":-89.0895,"lo2":-89.0444,"dy":0.0017,"dx":0.0017,"nx":28,"ny":28,"refTime":"2023-10-21T09:00:00:Z","depth":0,"parameterNumber":3,"parameterNumberName":"V-component_of_WINDS"},"data":[0,0,0,0,0,0,0,0,0,0,0,0,0,0,0,0,0,0,0,0,0,0,0,0,0,0,0,0,0,0,0,0,0,0,0,0,0,0,0,0,0,0,0,0,0,0,0,0,0,0,0,0,0,0,0,0,0,0,1.3334,1.3334,0,1.3276,1.3276,1.3275,1.3218,1.3218,1.3217,1.3216,1.3154,1.3153,1.3152,0,0,0,0,0,0,0,0,0,0,0,0,0,1.3393,1.3392,1.3334,1.3333,1.3333,1.3277,1.3276,1.3275,1.3219,1.3218,1.3217,1.3216,1.3155,1.3154,1.3152,0,0,0,0,0,0,0,0,0,0,0,0,0,1.3355,1.3392,1.3334,1.3298,1.3294,1.3277,1.3276,1.3275,1.3219,1.3218,1.3217,1.3216,1.3155,1.3154,1.3152,1.3165,0,0,1.3148,1.3147,0,0,0,0,0,0,0,0,1.3357,1.3353,1.3304,1.33,1.3296,1.3254,1.3274,1.3238,1.3219,1.3247,1.3216,1.3215,1.3188,1.3184,1.3175,1.3162,1.316,1.3148,1.3147,1.3146,1.3146,0,0,0,0,0,0,0,1.336,1.3355,1.3311,1.3303,1.3299,1.3284,1.3277,1.3267,1.3224,1.3245,1.3241,1.3235,1.3186,1.3177,1.3173,1.3159,1.3148,1.3146,1.3145,1.3145,1.3153,1.3154,0,0,0,0,0,0,1.3368,1.3357,1.3313,1.3309,1.3325,1.3284,1.3276,1.3268,1.3224,1.3217,1.3236,1.3232,1.318,1.3175,1.3171,1.3184,1.3146,1.3145,1.3144,1.3152,1.3154,1.3155,0,0,0,0,0,0,1.337,1.3365,1.3315,1.3332,1.3325,1.3284,1.3275,1.3268,1.3259,1.3218,1.3209,1.3235,1.3179,1.3173,1.3167,1.3181,1.3144,1.3143,1.3151,1.3153,1.3154,1.3209,0,0,0,0,0,0,1.3372,1.3366,1.3371,1.3333,1.3324,1.3314,1.3276,1.3267,1.3257,1.3252,1.3214,1.3207,1.3178,1.317,1.3166,1.3178,1.3142,1.315,1.3152,1.3154,1.3206,1.3213,1.3218,0,0,0,0,0,1.3374,1.3388,1.3371,1.3366,1.333,1.3315,1.3309,1.3276,1.3258,1.3263,1.3236,1.3208,1.318,1.317,1.3165,1.3177,1.3149,1.3151,1.3154,1.3203,1.3211,1.3218,0,0,0,0,0,0,1.3428,1.3382,1.3364,1.3366,1.3345,1.3305,1.331,1.3285,1.3268,1.3264,1.3222,1.3214,1.3213,1.3194,1.3184,1.3187,1.316,1.3162,1.32,1.3207,1.3213,1.3218,1.314,0,0,0,0,0,1.344,1.3432,1.3392,1.3398,1.3389,1.3351,1.3343,1.3319,1.3295,1.3286,1.3259,1.3236,1.3221,1.3213,1.3198,1.3203,1.3194,1.3208,1.3215,1.322,1.3222,1.3223,1.323,1.3163,1.3163,1.3163,0,0,1.3465,1.3439,1.3437,1.3408,1.3389,1.3382,1.3344,1.3337,1.3331,1.3284,1.3278,1.3257,1.3228,1.3229,1.3227,1.3213,1.3238,1.3223,1.3227,1.3226,1.3227,1.3233,1.3239,1.3165,1.3164,1.3164,0,0,1.3507,1.3486,1.3489,1.3471,1.3443,1.3418,1.3419,1.3383,1.3368,1.336,1.3326,1.3317,1.3293,1.3274,1.3262,1.3297,1.3271,1.3293,1.3325,1.3327,1.3332,1.3336,1.3349,1.3354,1.3295,1.3295,1.3295,0,1.3541,1.3529,1.3494,1.3489,1.3478,1.3436,1.3439,1.3422,1.339,1.3383,1.3367,1.3337,1.3315,1.331,1.3319,1.331,1.3309,1.3297,1.3334,1.3338,1.3342,1.3354,1.3359,1.3298,1.3298,1.3297,1.3297,0,1.3573,1.3565,1.357,1.3542,1.3531,1.353,1.3494,1.3487,1.3464,1.344,1.3433,1.3405,1.3384,1.3381,1.3357,1.3373,1.3365,1.3342,1.3315,1.3352,1.3362,1.3367,1.3302,1.3301,1.33,1.3299,0,0,1.3647,1.3599,1.3602,1.3589,1.3554,1.3547,1.3544,1.3524,1.3519,1.3498,1.3494,1.3475,1.3455,1.344,1.3415,1.3417,1.3447,1.3394,1.3392,1.3405,1.3462,1.348,1.3486,1.3429,1.343,1.343,1.3465,0,1.3684,1.3677,1.3645,1.3647,1.3639,1.36,1.3597,1.3575,1.3553,1.3543,1.3517,1.3505,1.3479,1.347,1.347,1.3443,1.3458,1.344,1.3425,1.3425,1.3434,1.3491,1.3509,1.3543,1.3468,1.3469,1.3469,0,1.3725,1.3708,1.3711,1.3677,1.3672,1.3671,1.365,1.364,1.3615,1.3598,1.3583,1.3555,1.3548,1.3522,1.3513,1.3502,1.3494,1.348,1.348,1.3478,1.345,1.3491,1.3553,1.3559,1.3475,1.3475,1.3475,0,1.378,1.3758,1.3756,1.3746,1.3706,1.3706,1.3689,1.3663,1.3653,1.3634,1.3627,1.3608,1.3598,1.3583,1.355,1.3534,1.3544,1.3515,1.353,1.3531,1.3535,1.3535,1.3598,1.3529,1.3529,1.3528,1.3528,0,1.3825,1.3828,1.378,1.378,1.3781,1.3744,1.3747,1.3726,1.3703,1.3697,1.3661,1.3656,1.3612,1.3601,1.3575,1.3572,1.3567,1.3553,1.3547,1.3557,1.3559,1.3552,1.3549,1.353,1.3529,1.3529,1.3529,0,1.3887,1.3855,1.3851,1.3814,1.3805,1.3808,1.3776,1.3774,1.3749,1.3742,1.3738,1.37,1.3686,1.3651,1.3627,1.361,1.3614,1.36,1.3623,1.3619,1.3636,1.3635,1.3696,1.3703,1.3629,1.363,1.3631,0,1.3917,1.3919,1.3883,1.3877,1.3862,1.3852,1.3842,1.3806,1.3797,1.3768,1.3769,1.3752,1.3737,1.3716,1.3685,1.3667,1.3654,1.3676,1.3651,1.3662,1.3655,1.3656,1.3656,1.3682,1.3683,1.3684,1.3685,0,1.3976,1.396,1.3948,1.393,1.392,1.3904,1.3886,1.3882,1.3841,1.3832,1.3818,1.3807,1.3783,1.3767,1.3744,1.3726,1.3699,1.3693,1.3696,1.3707,1.372,1.3714,1.3639,1.3692,1.3691,1.3691,1.369,1.369,1.4023,1.4023,1.3998,1.3985,1.3968,1.3952,1.3948,1.3924,1.3912,1.3891,1.3869,1.3858,1.3831,1.3798,1.3782,1.3772,1.3758,1.3761,1.3762,1.3764,1.3769,1.3722,1.3767,1.3767,1.3767,1.3766,1.3766,0,1.408,1.4062,1.4051,1.4028,1.4018,1.3994,1.3972,1.3966,1.3956,1.3935,1.3921,1.3905,1.3889,1.3858,1.3839,1.3837,1.3824,1.3833,1.3833,1.383,1.3782,1.3782,1.3844,1.3844,1.3844,1.3844,1.3844,1.3844,1.4109,1.4108,1.4089,1.4079,1.406,1.405,1.404,1.4024,1.4007,1.3991,1.3979,1.3959,1.3933,1.3912,1.3896,1.3887,1.3882,1.3896,1.3883,1.384,1.3833,1.3826,1.3826,1.3895,1.3895,1.3931,1.3932,1.3932]}]]